TimeAEST,TemperatureF,Dew PointF,Humidity,Sea Level PressureIn,VisibilityMPH,Wind Direction,Wind SpeedMPH,Gust SpeedMPH,PrecipitationIn,Events,Conditions,WindDirDegrees,DateUTC
12:00 AM,71.6,66.2,83,29.83,6.2,SSE,5.8,-,N/A,,Scattered Clouds,160,2013-11-10 14:00:00
12:30 AM,69.8,66.2,88,29.83,6.2,Calm,Calm,-,N/A,,Scattered Clouds,0,2013-11-10 14:30:00
1:00 AM,70,66,85,29.83,,Calm,Calm,,,,,,2013-11-10 15:00:00
1:00 AM,69.8,66.2,88,29.83,6.2,Calm,Calm,-,N/A,,Scattered Clouds,0,2013-11-10 15:00:00
1:30 AM,71.6,66.2,83,29.80,6.2,SSE,8.1,-,N/A,,Partly Cloudy,150,2013-11-10 15:30:00
2:00 AM,71.6,64.4,78,29.80,6.2,SSE,9.2,-,N/A,,Partly Cloudy,150,2013-11-10 16:00:00
2:30 AM,69.8,66.2,88,29.80,6.2,West,4.6,-,N/A,,Partly Cloudy,280,2013-11-10 16:30:00
3:00 AM,69.8,66.2,88,29.80,6.2,Calm,Calm,-,N/A,,Scattered Clouds,0,2013-11-10 17:00:00
3:30 AM,69.8,64.4,83,29.80,6.2,SE,12.7,-,N/A,,Scattered Clouds,130,2013-11-10 17:30:00
4:00 AM,70,65,80,29.83,,SW,1.2,,,,,220,2013-11-10 18:00:00
4:00 AM,69.8,64.4,83,29.83,6.2,SW,1.2,-,N/A,,Scattered Clouds,220,2013-11-10 18:00:00
4:30 AM,69.8,66.2,88,29.83,6.2,South,2.3,-,N/A,,Scattered Clouds,170,2013-11-10 18:30:00
5:00 AM,71.6,64.4,78,29.83,6.2,SE,1.2,-,N/A,,Scattered Clouds,140,2013-11-10 19:00:00
6:00 AM,71,64,73,29.85,19,ESE,6.9,,,,Partly Cloudy,120,2013-11-10 20:00:00
6:00 AM,71.6,64.4,78,29.83,6.2,ESE,6.9,-,N/A,,Partly Cloudy,120,2013-11-10 20:00:00
6:30 AM,73.4,64.4,73,29.86,6.2,SSE,9.2,-,N/A,,Partly Cloudy,150,2013-11-10 20:30:00
7:00 AM,75,65,63,29.88,,West,4.6,,,,,260,2013-11-10 21:00:00
7:00 AM,75.2,64.4,69,29.86,6.2,West,4.6,-,N/A,,Partly Cloudy,260,2013-11-10 21:00:00
7:30 AM,77.0,64.4,65,29.86,6.2,SE,9.2,-,N/A,,Partly Cloudy,140,2013-11-10 21:30:00
8:00 AM,80.6,64.4,58,29.86,6.2,South,8.1,-,N/A,,Partly Cloudy,170,2013-11-10 22:00:00
8:30 AM,80.6,66.2,61,29.86,6.2,South,9.2,-,N/A,,Partly Cloudy,180,2013-11-10 22:30:00
9:00 AM,82,66,48,29.87,19,SSE,11.5,,,,Partly Cloudy,160,2013-11-10 23:00:00
9:00 AM,82.4,66.2,58,29.86,6.2,SSE,11.5,-,N/A,,Partly Cloudy,160,2013-11-10 23:00:00
9:30 AM,84.2,66.2,55,29.86,6.2,SSE,10.4,-,N/A,,Partly Cloudy,160,2013-11-10 23:30:00
10:00 AM,85,67,46,29.87,,ESE,8.1,,,,,120,2013-11-11 00:00:00
10:00 AM,84.2,68.0,58,29.86,6.2,ESE,8.1,-,N/A,,Partly Cloudy,120,2013-11-11 00:00:00
10:30 AM,86.0,66.2,51,29.86,6.2,ESE,9.2,-,N/A,,Partly Cloudy,110,2013-11-11 00:30:00
11:00 AM,86.0,68.0,55,29.86,6.2,SE,9.2,-,N/A,,Partly Cloudy,130,2013-11-11 01:00:00
11:30 AM,86.0,68.0,55,29.83,6.2,ESE,10.4,-,N/A,,Partly Cloudy,120,2013-11-11 01:30:00
12:00 PM,88,68,42,29.84,19,ESE,9.2,,,,Partly Cloudy,110,2013-11-11 02:00:00
12:00 PM,87.8,68.0,52,29.83,6.2,ESE,9.2,-,N/A,,Partly Cloudy,110,2013-11-11 02:00:00
12:30 PM,86.0,66.2,51,29.83,6.2,ESE,10.4,-,N/A,,Scattered Clouds,110,2013-11-11 02:30:00
1:00 PM,88,68,42,29.82,,East,16.1,,,,,90,2013-11-11 03:00:00
1:00 PM,87.8,68.0,52,29.80,6.2,East,16.1,-,N/A,,Scattered Clouds,90,2013-11-11 03:00:00
1:30 PM,87.8,69.8,55,29.80,6.2,East,15.0,-,N/A,,Scattered Clouds,90,2013-11-11 03:30:00
2:00 PM,87.8,68.0,52,29.80,6.2,East,15.0,-,N/A,,Partly Cloudy,80,2013-11-11 04:00:00
2:30 PM,87.8,68.0,52,29.77,6.2,East,15.0,-,N/A,,Partly Cloudy,90,2013-11-11 04:30:00
3:00 PM,88,68,42,29.78,19,East,17.3,,,,Partly Cloudy,100,2013-11-11 05:00:00
3:00 PM,87.8,68.0,52,29.77,6.2,East,17.3,-,N/A,,Partly Cloudy,100,2013-11-11 05:00:00
3:30 PM,87.8,69.8,55,29.77,6.2,East,18.4,-,N/A,,Partly Cloudy,90,2013-11-11 05:30:00
4:00 PM,86,69,49,29.79,,East,13.8,,,,,100,2013-11-11 06:00:00
4:00 PM,86.0,69.8,58,29.77,6.2,East,13.8,-,N/A,,Partly Cloudy,100,2013-11-11 06:00:00
4:30 PM,86.0,71.6,62,29.77,6.2,East,15.0,-,N/A,,Partly Cloudy,100,2013-11-11 06:30:00
5:00 PM,84.2,69.8,62,29.77,6.2,East,13.8,-,N/A,,Partly Cloudy,90,2013-11-11 07:00:00
5:30 PM,82.4,71.6,70,29.80,6.2,East,12.7,-,N/A,,Partly Cloudy,90,2013-11-11 07:30:00
6:00 PM,81,72,67,29.81,,East,11.5,,,,,90,2013-11-11 08:00:00
6:00 PM,80.6,71.6,74,29.80,6.2,East,11.5,-,N/A,,Partly Cloudy,90,2013-11-11 08:00:00
6:30 PM,80.6,71.6,74,29.80,6.2,East,11.5,-,N/A,,Partly Cloudy,90,2013-11-11 08:30:00
7:00 PM,80,72,70,29.83,,ESE,9.2,,,,,120,2013-11-11 09:00:00
7:00 PM,80.6,71.6,74,29.80,6.2,ESE,9.2,-,N/A,,Partly Cloudy,120,2013-11-11 09:00:00
7:30 PM,80.6,71.6,74,29.83,6.2,ESE,8.1,-,N/A,,Partly Cloudy,120,2013-11-11 09:30:00
8:00 PM,78.8,71.6,78,29.83,6.2,SSE,3.5,-,N/A,,Mostly Cloudy,160,2013-11-11 10:00:00
8:30 PM,80.6,71.6,74,29.83,6.2,ESE,8.1,-,N/A,,Mostly Cloudy,110,2013-11-11 10:30:00
9:00 PM,80,72,71,29.84,,East,10.4,,,,Overcast,100,2013-11-11 11:00:00
9:00 PM,80.6,71.6,74,29.83,6.2,East,10.4,-,N/A,,Scattered Clouds,100,2013-11-11 11:00:00
9:30 PM,78.8,71.6,78,29.83,6.2,East,8.1,-,N/A,,Partly Cloudy,100,2013-11-11 11:30:00
10:00 PM,79,72,74,29.86,,ESE,9.2,,,,,120,2013-11-11 12:00:00
10:00 PM,78.8,71.6,78,29.83,6.2,ESE,9.2,-,N/A,,Partly Cloudy,120,2013-11-11 12:00:00
10:30 PM,78.8,73.4,83,29.86,6.2,ESE,6.9,-,N/A,,Mostly Cloudy,120,2013-11-11 12:30:00
11:00 PM,78.8,73.4,83,29.83,6.2,East,6.9,-,N/A,,Mostly Cloudy,100,2013-11-11 13:00:00
11:30 PM,78.8,71.6,78,29.83,6.2,ESE,9.2,-,N/A,,Mostly Cloudy,110,2013-11-11 13:30:00